This demonstration page uses our WeatherBlox Daily Observations layout. Learn more.

Left ArrowRight Arrow

47.50024, -111.30081

Hourly Observations for April 12, 2019

Temp ( °F °C ) Dew Point ( °F °C ) Humidity (%) Winds ( mph kmh ) Pressure ( in mb ) Visibility ( mi km ) Precip ( " mm )
12:07 am 00:07 Mostly Cloudy 32 0 32 0 100 100 SW 8 13 29.96 1015 3 5 0.00 0.00
12:18 am 00:18 Mostly Cloudy 31 -0.6 31 -0.6 100 100 SSW 8 13 29.97 1015 10 16 0.00 0.00
12:44 am 00:44 Cloudy 31 -0.6 31 -0.6 100 100 SSW 5 7 29.97 1015 10 16 0.00 0.00
12:53 am 00:53 Cloudy 31 -0.6 31 -0.6 100 100 SSW 3 6 29.94 1014 10 16 0.00 0.00
1:53 am 01:53 Cloudy 31 -0.6 31 -0.6 100 100 SW 5 7 29.93 1014 10 16 0.00 0.00
2:05 am 02:05 Cloudy 31 -0.6 31 -0.6 100 100 SW 6 9 29.96 1015 10 16 0.00 0.00
2:53 am 02:53 Cloudy 32 0 32 0 100 100 SW 6 9 29.92 1013 10 16 0.00 0.00
3:53 am 03:53 Cloudy 32 0 32 0 100 100 SW 7 11 29.92 1013 10 16 0.00 0.00
4:26 am 04:26 Cloudy with Light Snow 32 0 32 0 100 100 NW 3 6 29.95 1014 7 11 0.00 0.03
4:29 am 04:29 Cloudy with Light Snow 32 0 32 0 100 100 WNW 3 6 29.95 1014 1 2 0.00 0.03
4:35 am 04:35 Cloudy with Light Snow 32 0 32 0 100 100 WNW 3 6 29.95 1014 1 2 0.00 0.03
4:37 am 04:37 Cloudy with Light Snow 32 0 32 0 100 100 WNW 3 6 29.95 1014 1 1 0.00 0.03
4:53 am 04:53 Cloudy with Light Snow 32 0 32 0 100 100 W 5 7 29.92 1013 1 2 0.02 0.51
5:00 am 05:00 Cloudy with Light Snow 32 0 32 0 100 100 W 5 7 29.96 1015 1 1 0.00 0.03
5:10 am 05:10 Cloudy with Light Snow 32 0 32 0 100 100 WNW 7 11 29.96 1015 1 1 0.00 0.03
5:53 am 05:53 Cloudy with Light Snow 31 -0.6 31 -0.6 100 100 NW 9 15 29.95 1014 1 1 0.01 0.25
6:23 am 06:23 Cloudy with Light Snow 30 -1.1 30 -1.1 100 100 N 8 13 30.00 1016 3 4 0.01 0.25
6:34 am 06:34 Cloudy 30 -1.1 30 -1.1 100 100 NNE 7 11 30.00 1016 9 14 0.01 0.25
6:53 am 06:53 Cloudy 29 -1.7 29 -1.7 100 100 N 8 13 29.99 1016 10 16 0.01 0.25
7:00 am 07:00 Cloudy 29 -1.7 29 -1.7 100 100 N 8 13 30.02 1016 10 16 0.00 0.00
7:53 am 07:53 Cloudy 29 -1.7 29 -1.7 100 100 N 5 7 30.01 1016 10 16 0.00 0.00
8:53 am 08:53 Cloudy 30 -1.1 30 -1.1 100 100 NNW 7 11 30.03 1017 10 16 0.00 0.00
9:19 am 09:19 Cloudy 30 -1.1 30 -1.1 100 100 N 6 9 30.05 1018 10 16 0.00 0.00
9:53 am 09:53 Cloudy 30 -1.1 30 -1.1 100 100 NW 5 7 30.04 1017 10 16 0.00 0.00
10:14 am 10:14 Cloudy 31 -0.6 31 -0.6 100 100 NW 6 9 30.04 1017 10 16 0.00 0.00
10:53 am 10:53 Cloudy 32 0 32 0 100 100 N 6 9 30.05 1018 10 16 0.00 0.00
11:14 am 11:14 Cloudy 34 1.1 32 0 92 92 N 3 6 30.02 1017 10 16 0.00 0.00
11:48 am 11:48 Mostly Cloudy 36 2 30 -1 81 81 VRB 3 6 30.01 1016 10 16 0.00 0.00
11:53 am 11:53 Mostly Cloudy 36 2.2 32 0 86 86 NE 5 7 30.04 1017 10 16 0.00 0.00
12:53 pm 12:53 Cloudy 37 2.8 29 -1.7 73 73 Calm 30.02 1017 10 16 0.00 0.00
1:23 pm 13:23 Cloudy 40 4.4 29 -1.7 65 65 Calm 29.97 1015 10 16 0.00 0.00
1:53 pm 13:53 Cloudy 42 5.6 28 -2.2 58 58 WNW 6 9 30.00 1016 10 16 0.00 0.00
2:53 pm 14:53 Mostly Cloudy 42 5.6 25 -3.9 51 51 undefined N/A 30.00 1016 10 16 0.00 0.00
3:53 pm 15:53 Sunny 44 6.7 24 -4.4 45 45 Calm 29.98 1015 10 16 0.00 0.00
4:53 pm 16:53 Cloudy 43 6.1 25 -3.9 49 49 WSW 6 9 29.97 1015 10 16 0.00 0.00
5:53 pm 17:53 Mostly Cloudy 45 7.2 23 -5 42 42 NW 5 7 29.97 1015 10 16 0.00 0.00
6:53 pm 18:53 Mostly Sunny 43 6.1 23 -5 45 45 Calm 29.98 1015 10 16 0.00 0.00
7:53 pm 19:53 Cloudy 39 3.9 27 -2.8 62 62 WSW 5 7 29.99 1016 10 16 0.00 0.00
8:53 pm 20:53 Clear 33 0.6 27 -2.8 78 78 WSW 5 7 30.00 1016 10 16 0.00 0.00
9:53 pm 21:53 Clear 30 -1.1 25 -3.9 82 82 SSW 7 11 30.01 1016 10 16 0.00 0.00
10:53 pm 22:53 Clear 28 -2.2 25 -3.9 88 88 SW 6 9 30.01 1016 10 16 0.00 0.00
11:53 pm 23:53 Clear 29 -1.7 27 -2.8 92 92 SSW 7 11 29.98 1015 10 16 0.00 0.00

Powered by AerisWeather